SCP
0 0 0 0 0 0 0 0 0 0 0 0 0 0 0 0 0 0 0 0 0 0
0 0 0 0 0 0 0 0 0 0 0 0 0 0 0 0 0 0 0 0 0 0
0 0 0 0 0 0 0 0 0 0 0 0 0 0 0 0 0 0 0 0 0 0
0 0 0 0 0 0 0 0 0 0 0 0 0 0 0 0 0 0 0 0 0 0
0 0 0 0 0 0 0 0 0 0 0 0 0 0 0 0 0 0 0 0 0 0
0 0 0 0 0 0 0 0 0 0 0 0 0 0 0 0 0 0 0 0 -0 0
0 0 0 0 0 0 0 0 0 0 0 0 0 0 0 0 0 0 0 0 0 0
0 0 0 0 0 0 0 0 0 0 0 0 0 0 -0 -0 -0 0 0 0 0 0
0 0 0 0 0 0 0 0 0 0 0 0 0 0 0 -0 -0 0 0 0 0 0
0 0 0 0 0 0 0 0 0 0 0 0 0 -0 -0 -0 0 0 0 0 0 0
0 0 0 0 0 0 0 0 0 0 0 0 -0 -0 -0 0 0 0 0 0 0 0
0 0 0 0 0 0 0 0 0 0 -0 -0 -0 -0 -0 0 0 0 0 0 0 0
0 0 0 0 0 0 -0 -0 -0 -0 -0 -0 -0 0 0 0 0 0 0 0 0 0
0 0 0 0 0 0 0 0 0 0 0 0 0 0 0 0 0 0 0 0 0 0
Wind_Speed_500mb
59 61 58 57 58 60 47 38 40 48 53 50 46 44 46 41 41 44 49 54 56 51
55 54 54 55 58 48 47 40 50 56 59 50 43 38 41 37 35 37 38 37 36 33
49 51 53 57 55 48 43 46 51 60 46 39 35 36 36 35 34 28 25 26 27 29
48 52 56 58 48 43 47 48 59 49 41 36 33 32 31 30 25 25 24 27 25 26
51 58 62 50 38 42 45 54 53 40 37 35 29 28 26 23 22 28 22 14 21 16
57 64 57 41 38 44 50 54 40 36 33 30 26 27 19 18 20 15 17 17 21 19
61 59 46 39 42 49 55 46 37 33 30 24 24 24 15 16 16 15 17 20 20 23
63 49 39 40 44 54 48 38 31 27 24 17 18 18 15 12 13 16 19 22 19 16
53 41 37 42 50 48 40 29 22 26 17 11 14 12 7 9 15 18 19 20 13 14
43 36 41 45 46 37 33 30 20 18 11 9 10 9 5 11 16 17 20 23 22 27
36 38 43 44 41 41 25 20 14 10 13 14 13 13 11 14 18 18 19 21 26 35
38 42 40 41 39 26 22 15 9 11 12 18 17 14 9 12 13 19 19 19 23 30
41 36 41 38 32 28 18 11 12 14 14 18 17 12 12 17 18 17 17 18 21 27
32 40 37 31 27 28 20 19 19 18 21 19 19 20 18 13 20 19 19 22 23 24
Wind_Direction_500mb
307 311 314 315 314 314 314 317 325 314 316 311 304 303 304 306 297 286 283 280 282 280
311 315 317 314 315 314 315 314 314 315 316 311 310 308 314 310 302 297 289 287 286 276
315 319 317 318 319 314 314 312 314 319 318 320 317 320 318 314 308 306 299 293 287 283
320 322 322 322 318 317 317 314 318 317 320 322 322 326 320 320 320 311 307 298 290 292
323 324 324 322 321 323 317 318 319 318 319 320 322 323 324 323 323 316 315 306 314 314
324 326 325 321 317 316 319 322 317 320 321 324 327 329 320 332 331 327 317 321 311 304
328 328 323 319 317 317 322 319 316 317 325 326 343 340 324 335 332 342 334 322 311 297
329 325 322 320 321 321 321 321 320 322 327 331 351 6 10 2 358 351 338 329 324 313
328 325 322 326 326 324 327 325 330 330 331 353 3 6 11 346 8 359 355 13 52 57
329 327 328 328 328 339 345 341 337 340 341 24 358 4 80 19 25 19 38 50 53 62
335 334 332 334 340 328 329 339 350 21 55 33 44 74 74 49 43 46 53 63 64 67
342 337 339 341 341 343 339 356 31 61 60 66 60 78 69 71 63 59 59 81 72 81
344 348 348 350 2 358 4 20 67 70 72 61 62 63 60 74 75 60 63 93 90 94
355 357 5 16 15 23 39 66 69 75 76 71 69 75 55 59 86 76 85 110 106 100
Wind_Speed_850mb
59 61 58 57 58 60 47 38 40 48 53 50 46 44 46 41 41 44 49 54 56 51
55 54 54 55 58 48 47 40 50 56 59 50 43 38 41 37 35 37 38 37 36 33
49 51 53 57 55 48 43 46 51 60 46 39 35 36 36 35 34 28 25 26 27 29
48 52 56 58 48 43 47 48 59 49 41 36 33 32 31 30 25 25 24 27 25 26
51 58 62 50 38 42 45 54 53 40 37 35 29 28 26 23 22 28 22 14 21 16
57 64 57 41 38 44 50 54 40 36 33 30 26 27 19 18 20 15 17 17 21 19
61 59 46 39 42 49 55 46 37 33 30 24 24 24 15 16 16 15 17 20 20 23
63 49 39 40 44 54 48 38 31 27 24 17 18 18 15 12 13 16 19 22 19 16
53 41 37 42 50 48 40 29 22 26 17 11 14 12 7 9 15 18 19 20 13 14
43 36 41 45 46 37 33 30 20 18 11 9 10 9 5 11 16 17 20 23 22 27
36 38 43 44 41 41 25 20 14 10 13 14 13 13 11 14 18 18 19 21 26 35
38 42 40 41 39 26 22 15 9 11 12 18 17 14 9 12 13 19 19 19 23 30
41 36 41 38 32 28 18 11 12 14 14 18 17 12 12 17 18 17 17 18 21 27
32 40 37 31 27 28 20 19 19 18 21 19 19 20 18 13 20 19 19 22 23 24
Wind_Direction_850mb
307 311 314 315 314 314 314 317 325 314 316 311 304 303 304 306 297 286 283 280 282 280
311 315 317 314 315 314 315 314 314 315 316 311 310 308 314 310 302 297 289 287 286 276
315 319 317 318 319 314 314 312 314 319 318 320 317 320 318 314 308 306 299 293 287 283
320 322 322 322 318 317 317 314 318 317 320 322 322 326 320 320 320 311 307 298 290 292
323 324 324 322 321 323 317 318 319 318 319 320 322 323 324 323 323 316 315 306 314 314
324 326 325 321 317 316 319 322 317 320 321 324 327 329 320 332 331 327 317 321 311 304
328 328 323 319 317 317 322 319 316 317 325 326 343 340 324 335 332 342 334 322 311 297
329 325 322 320 321 321 321 321 320 322 327 331 351 6 10 2 358 351 338 329 324 313
328 325 322 326 326 324 327 325 330 330 331 353 3 6 11 346 8 359 355 13 52 57
329 327 328 328 328 339 345 341 337 340 341 24 358 4 80 19 25 19 38 50 53 62
335 334 332 334 340 328 329 339 350 21 55 33 44 74 74 49 43 46 53 63 64 67
342 337 339 341 341 343 339 356 31 61 60 66 60 78 69 71 63 59 59 81 72 81
344 348 348 350 2 358 4 20 67 70 72 61 62 63 60 74 75 60 63 93 90 94
355 357 5 16 15 23 39 66 69 75 76 71 69 75 55 59 86 76 85 110 106 100